Regional Weather Roundup
Issued by NWS

Home | Current Version | Previous Version | Text Only | Print | Product List | Glossary On
Versions: 1 2 3 4 5 6 7 8 9 10 11 12 13 14 15 16 17 18 19 20 21 22 23 24 25 26 27 28 29 30 31 32 33 34 35 36 37 38 39 40 41 42 43 44 45 46 47 48 49 50
000
ASUS43 KLSX 012059
RWRMO

WEATHER SUMMARY FOR MISSOURI
NATIONAL WEATHER SERVICE SPRINGFIELD MO
400 PM CDT SAT AUG 01 2015

NOTE: "FAIR" INDICATES FEW OR NO CLOUDS BELOW 12,000 FEET WITH NO
       SIGNIFICANT WEATHER AND/OR OBSTRUCTIONS TO VISIBILITY.
       CURRENT SKY AND/OR WEATHER CONDITIONS ARE NOT AVAILABLE FOR
       CHILLICOTHE AND FARMINGTON.

MOZ001>031-035>038-043-044-053-054-012200-
...NORTHERN AND WESTERN MISSOURI...

CITY           SKY/WX    TMP DP  RH WIND       PRES   REMARKS
KANSAS CTY INT MOSUNNY   90  73  57 W6        29.99F HX  98
KANSAS C DTWN  MOSUNNY   93  71  48 W8        29.97F HX 100
LEE`S SUMMIT   MOSUNNY   91  69  48 W6        30.00F HX  96
ST JOSEPH      MOSUNNY   89  74  60 W8        29.97F HX  98
CHILLICOTHE      N/A     81  66  60 CALM      29.97F
KIRKSVILLE     PTSUNNY   88  71  57 CALM      29.99F HX  94

$$
MOZ066>068-077>081-088>096-101>105-012200-
...SOUTHWEST MISSOURI...

CITY           SKY/WX    TMP DP  RH WIND       PRES   REMARKS
SPRINGFIELD    SUNNY     90  58  33 SW6       30.04S
JOPLIN         SUNNY     93  66  40 VRB6      30.01F HX  96

$$
MOZ032>034-039>042-045>050-055>058-069>072-012200-
...CENTRAL MISSOURI...

CITY           SKY/WX    TMP DP  RH WIND       PRES   REMARKS
COLUMBIA       PTSUNNY   87  71  58 W7        30.01S HX  93
JEFFERSON CITY CLOUDY    84  71  65 W14G20    29.99R
ROLLA          CLOUDY    79  64  60 W8        30.02S
SEDALIA        PTSUNNY   73  68  84 S10       30.05S
WARRENSBURG    MOSUNNY   82  64  54 SE13      30.01F
OSAGE BEACH    CLOUDY    82  72  69 CALM      30.04R

$$
MOZ051-052-059>065-012200-
...EAST CENTRAL MISSOURI...

CITY           SKY/WX    TMP DP  RH WIND       PRES   REMARKS
ST LOUIS INTL  CLOUDY    90  63  40 VRB3      30.00S HX  91
SPIRIT OF STL  CLOUDY    88  69  53 CALM      29.98F HX  92
ST CHARLES     CLOUDY    87  65  47 SE5       29.98F

$$
MOZ072>076-082>087-097>100-106>115-012200-
...SOUTH CENTRAL AND SOUTHEAST MISSOURI...

CITY           SKY/WX    TMP DP  RH WIND       PRES   REMARKS
CAPE GIRARDEAU PTSUNNY   89  70  53 CALM      29.98F HX  94
FARMINGTON     MOSUNNY   88  68  51 CALM      30.04F HX  91
POPLAR BLUFF   SUNNY     93  69  45 N5        29.97F HX  98
WEST PLAINS    SUNNY     90  58  33 W6        30.05F

$$



USA.gov is the U.S. government's official web portal to all federal, state and local government web resources and services.